Location: Newark
(43.0000°N, 1.6781°W)
Time: 08:41:59
(UTC+00:00)

Vanguard 1 - Pass Details

Date: 25 April 2021
Orbit: 649 x 3834 km, 34.2° (Epoch: 04 May)

Event Time Altitude Azimuth Distance (km) Brightness Sun altitude
Rises 20:48:15 0° 279° (W) 7,670 15.7 -17.9°
Reaches altitude 10° 20:56:31 10° 263° (W) 6,891 14.9 -19.0°
Maximum altitude 21:08:15 17° 232° (SW) 6,288 14.2 -20.6°
Drops below altitude 10° 21:19:29 10° 200° (SSW) 6,444 14.0 -22.1°
Enters shadow 21:26:32 - 183° (S) 6,925 14.0 -22.9°
